Location: Huesca
(42.1318°N, 0.4078°W)
Time: 22:10:37
(UTC+02:00)

RS-15 - Pass Details

Date: 04 May 2024
Orbit: 1896 x 2149 km, 64.8° (Epoch: 22 May)

Event Time Altitude Azimuth Distance (km) Brightness Sun altitude
Rises 01:03:18 0° 302° (WNW) 5,494 11.0 -30.5°
Reaches altitude 10° 01:08:01 10° 317° (NW) 4,450 10.6 -30.7°
Maximum altitude 01:16:25 22° 5° (N) 3,465 9.9 -31.0°
Drops below altitude 10° 01:24:36 10° 54° (NE) 4,319 10.1 -31.3°
Sets 01:29:03 0° 69° (ENE) 5,295 10.5 -31.4°
